Location: Zagreb
(45.8000°N, 16.0000°E)
Time: 18:20:51
(UTC+02:00)

A-11 Canister half - Pass Details

Date: 13 August 2022
Orbit: 1524 x 1684 km, 47.3° (Epoch: 05 October)

Event Time Altitude Azimuth Distance (km) Brightness Sun altitude
Rises 10:00:33 0° 282° (WNW) 4,941 11.2 41.1°
Reaches altitude 10° 10:03:43 10° 283° (WNW) 3,951 10.8 41.6°
Maximum altitude 10:13:57 90° 10° (N) 1,672 10.0 43.2°
Drops below altitude 10° 10:23:57 10° 106° (ESE) 3,866 12.1 44.7°
Sets 10:27:01 0° 107° (ESE) 4,831 12.3 45.2°
